Date,TemperatureHighF,TemperatureAvgF,TemperatureLowF,DewpointHighF,DewpointAvgF,DewpointLowF,HumidityHigh,HumidityAvg,HumidityLow,PressureMaxIn,PressureMinIn,WindSpeedMaxMPH,WindSpeedAvgMPH,GustSpeedMaxMPH,PrecipitationSumIn
2013-1-1,48,41,33,41,32,10,97,72,33,30.17,29.93,20,4,20,0.62
2013-1-2,40,34,31,39,32,28,98,91,74,30.24,29.96,15,5,15,0.62
2013-1-3,34,30,25,33,25,12,98,82,60,30.37,30.18,18,4,18,0.62
2013-1-4,35,26,23,14,11,7,69,53,40,30.45,30.28,21,8,21,0.62
2013-1-5,42,31,21,24,14,8,73,52,31,30.54,30.26,18,7,19,0.62
2013-1-6,40,34,29,34,27,21,98,77,63,30.31,30.10,21,5,21,0.62
2013-1-7,42,32,24,25,20,4,89,63,39,30.60,30.24,19,-5,19,0.62
2013-1-8,44,35,28,34,24,18,88,65,48,30.52,30.38,20,7,20,0.62
2013-1-9,57,48,36,50,44,33,98,87,61,30.51,30.37,13,3,13,0.62
2013-1-10,52,48,44,52,46,28,98,92,52,30.56,30.44,22,7,22,0.62
2013-1-11,55,46,40,55,45,28,98,96,52,30.46,30.14,24,7,24,0.62
2013-1-12,64,57,51,59,55,50,98,92,68,30.19,30.08,26,5,26,0.62
2013-1-13,59,55,52,58,54,52,98,97,92,30.17,30.05,23,10,26,0.62
2013-1-14,56,54,44,55,53,44,98,98,98,30.27,30.08,15,4,15,0.62
2013-1-15,52,43,38,51,42,37,98,98,98,30.24,30.08,15,6,15,0.62
2013-1-16,58,49,42,51,46,42,98,91,57,30.08,29.92,15,4,15,0.62
2013-1-17,47,39,26,47,38,25,98,98,98,30.29,29.90,16,-33,16,0.62
2013-1-18,36,26,21,25,19,12,98,75,51,30.64,30.29,19,6,19,0.62
2013-1-19,44,33,22,26,21,16,81,63,47,30.60,30.23,13,4,13,0.62
2013-1-20,45,37,32,25,21,11,67,53,34,30.24,30.09,20,6,20,0.62
2013-1-21,40,32,21,25,15,-1,79,52,34,30.20,29.98,20,6,23,0.62
2013-1-22,24,16,11,1,-5,-9,46,38,27,30.36,30.06,28,7,28,0.62
2013-1-23,35,24,14,21,6,-8,60,46,35,30.40,30.05,23,6,23,0.62
2013-1-24,35,24,13,24,7,-4,68,47,33,30.58,29.92,34,-6,34,0.62
2013-1-25,36,20,11,35,10,-5,98,68,47,30.59,30.04,28,11,28,0.00
2013-1-26,34,28,24,31,21,13,98,75,51,30.48,30.10,17,6,17,0.00
2013-1-27,32,25,22,26,22,19,98,88,67,30.63,30.48,16,6,16,0.00
2013-1-28,52,40,26,41,33,25,98,77,47,30.53,30.24,16,4,16,0.00
2013-1-29,61,53,45,53,43,36,98,71,47,30.30,30.06,23,7,23,0.00
2013-1-30,57,52,39,56,52,39,98,98,98,30.06,29.52,38,13,38,0.00
2013-1-31,40,27,22,39,17,11,98,66,51,30.06,29.56,26,7,26,0.00
2013-2-1,33,18,11,25,4,-4,91,53,36,30.49,29.92,30,6,30,0.00
2013-2-2,30,21,12,27,8,-6,95,57,37,30.49,30.06,17,6,17,0.00
2013-2-3,34,27,21,26,19,12,89,71,55,30.09,29.86,33,1,33,0.00
2013-2-4,43,29,17,20,15,10,84,57,36,30.24,29.96,25,6,25,0.04
2013-2-5,50,39,34,29,21,14,61,49,36,30.04,29.88,21,4,21,0.00
2013-2-6,53,39,32,29,19,8,67,46,21,30.36,29.99,17,4,17,0.00
2013-2-7,37,35,33,35,25,14,98,69,40,30.36,30.08,12,6,12,0.17
2013-2-8,45,36,27,41,30,18,98,82,42,30.17,29.88,21,6,21,0.41
2013-2-9,54,35,25,20,10,5,77,39,20,30.42,30.15,19,6,19,0.00
2013-2-10,43,36,31,40,17,9,98,49,31,30.48,30.16,32,14,32,0.00
2013-2-11,57,47,41,55,37,14,98,72,30,30.16,29.97,29,8,29,0.21
2013-2-12,42,36,32,30,18,14,89,50,34,30.17,30.02,24,-3,24,0.00
2013-2-13,43,34,29,43,33,25,98,94,81,30.02,29.63,23,7,23,0.21
2013-2-14,50,34,23,26,21,16,85,61,37,30.14,29.92,18,6,19,0.21
2013-2-15,52,37,27,33,26,19,98,67,30,30.18,29.94,19,4,19,0.21
2013-2-16,32,24,15,23,15,0,85,69,47,30.09,29.86,23,7,23,0.21
2013-2-17,27,18,11,3,0,-3,57,44,34,30.33,30.06,24,10,24,0.21
2013-2-18,47,32,21,17,11,-1,51,41,30,30.42,30.21,29,9,29,0.21
2013-2-19,48,34,27,36,20,2,98,58,34,30.24,29.83,37,10,37,0.21
2013-2-20,38,28,22,6,0,-6,45,31,19,30.22,30.05,28,10,28,0.21
2013-2-21,58,35,21,28,7,-6,82,33,15,30.33,29.99,19,7,19,0.21
2013-2-22,36,31,28,35,30,28,98,98,83,30.34,30.17,11,0,11,0.21
2013-2-23,50,43,30,48,42,30,98,96,83,30.19,29.85,9,2,9,0.21
2013-2-24,50,39,33,39,21,13,98,52,27,30.12,29.87,18,6,18,0.21
2013-2-25,38,31,27,20,16,12,70,55,41,30.24,30.09,18,9,18,0.21
2013-2-26,35,31,24,34,30,16,98,95,64,30.18,29.64,17,2,17,0.21
2013-2-27,52,36,30,33,26,20,98,71,38,29.87,29.66,23,4,23,0.21
2013-2-28,32,27,24,24,19,16,87,70,57,29.96,29.79,20,6,20,0.21
2013-3-1,35,28,24,23,21,18,89,74,51,30.00,29.87,19,4,19,0.21
2013-3-2,34,27,18,23,17,9,85,68,52,30.02,29.86,22,5,22,0.21
2013-3-3,30,20,15,10,7,4,74,57,41,30.09,29.95,25,9,25,0.21
2013-3-4,48,29,17,14,7,2,64,41,17,30.22,30.01,22,6,22,0.21
2013-3-5,40,37,28,40,27,10,98,71,32,30.10,29.65,19,3,19,0.21
2013-3-6,28,23,20,22,17,12,93,76,57,30.22,29.67,40,12,40,0.21
2013-3-7,38,25,22,21,19,15,93,77,47,30.39,30.18,20,10,20,0.21
2013-3-8,44,29,21,20,15,10,80,58,35,30.45,30.24,18,8,18,0.21
2013-3-9,60,42,28,24,17,11,69,37,25,30.45,30.18,16,6,16,0.21
2013-3-10,60,46,38,27,22,19,48,39,27,30.34,30.12,24,13,27,0.21
2013-3-11,47,42,39,47,39,25,98,89,45,30.21,29.88,33,14,33,0.21
2013-3-12,47,40,34,47,33,18,98,78,44,30.09,29.78,20,7,20,0.21
2013-3-13,37,30,21,26,15,6,72,54,35,30.23,30.06,23,6,23,0.21
2013-3-14,44,27,17,13,7,3,64,45,25,30.37,30.17,21,7,21,0.21
2013-3-15,60,43,28,34,21,8,78,44,24,30.27,29.89,19,5,19,0.21
2013-3-16,74,58,51,42,36,33,61,45,25,29.94,29.67,22,4,22,0.21
2013-3-17,61,51,35,46,41,34,98,70,48,30.20,29.91,17,5,17,0.21
2013-3-18,44,34,30,43,34,29,98,98,98,30.22,29.90,16,3,16,0.21
2013-3-19,52,40,32,46,22,1,98,55,21,30.16,29.85,18,6,18,0.21
2013-3-20,51,35,25,25,4,-4,89,29,16,30.20,29.85,18,5,18,0.21
2013-3-21,33,22,14,17,3,0,73,45,32,30.09,29.85,20,7,20,0.21
2013-3-22,50,29,17,24,8,2,66,41,26,30.16,29.88,19,4,19,0.21
2013-3-23,51,39,32,32,27,20,77,63,43,30.11,29.88,17,3,17,0.21
2013-3-24,39,34,30,37,32,27,98,93,64,29.99,29.60,18,5,18,0.00
2013-3-25,34,27,22,29,21,15,98,79,51,29.95,29.61,0,0,0,0.00
2013-3-26,38,26,22,20,16,13,78,66,43,30.24,29.88,0,0,0,0.00
2013-3-27,40,28,22,19,14,10,79,58,37,30.33,30.21,15,3,15,0.00
2013-3-28,48,31,23,18,12,9,57,46,29,30.42,30.19,17,6,17,0.00
2013-3-29,50,34,28,18,14,11,52,43,24,30.44,30.23,11,5,11,0.00
2013-4-5,50,45,40,28,26,22,61,48,40,30.20,30.02,15,-33,15,0.00
2013-4-6,64,49,38,31,24,20,49,38,25,30.35,30.15,21,7,21,0.34
2013-4-7,68,50,37,36,32,24,77,51,28,30.38,30.09,23,10,23,0.00
2013-4-8,71,56,45,44,38,33,67,51,34,30.28,30.06,25,7,25,0.00
2013-4-9,80,63,50,47,42,39,71,50,24,30.32,30.08,24,6,24,0.00
2013-4-10,83,66,53,48,45,40,77,50,23,30.24,29.97,20,6,20,0.00
2013-4-11,72,61,53,59,49,42,98,68,36,30.11,29.81,36,6,36,0.00
2013-4-12,70,56,46,60,45,26,98,70,27,30.02,29.70,34,7,36,0.00
2013-4-13,67,51,43,30,25,15,58,38,16,30.20,29.92,24,-28,24,0.00
2013-4-14,66,55,46,45,28,20,88,38,25,30.22,30.06,29,-256,29,0.00
2013-4-15,53,50,47,52,49,45,98,98,89,30.37,30.11,19,-92,19,0.00
2013-4-16,75,60,50,62,52,49,98,80,43,30.40,30.19,17,2,17,0.00
2013-4-17,68,59,54,58,54,51,98,85,59,30.38,30.18,14,-116,14,0.00
2013-4-18,68,60,55,58,54,46,98,82,47,30.27,30.05,31,10,31,0.00
2013-4-19,59,54,38,58,53,31,98,96,77,30.06,29.81,38,-42,38,0.00
2013-4-20,58,41,30,31,21,17,78,47,25,30.50,30.02,25,-162,25,0.00
2013-4-21,62,45,34,28,23,16,58,42,26,30.60,30.36,20,-252,20,0.00
2013-4-22,63,45,35,33,28,18,86,53,26,30.58,30.26,16,5,16,0.00
2013-4-23,70,50,34,41,32,18,76,53,29,30.48,30.10,18,-92,18,0.00
2013-4-24,70,54,45,54,45,39,93,73,43,30.26,30.01,23,-128,23,0.00
2013-4-25,68,48,34,42,25,7,89,49,12,30.46,30.21,12,-467,14,0.00
2013-4-26,67,51,40,29,24,19,46,36,24,30.54,30.33,21,-284,21,0.00
2013-4-27,57,49,46,47,39,26,98,71,39,30.52,30.36,19,-27,19,0.00
2013-4-28,50,46,43,49,45,37,98,96,76,30.38,30.15,30,-7,30,0.00
2013-4-29,64,54,47,58,51,47,98,90,70,30.21,30.04,10,4,10,0.00
2013-4-30,72,57,52,60,53,46,98,89,43,30.33,30.06,15,4,15,0.00
2013-5-1,58,52,49,53,49,45,98,90,66,30.43,30.30,17,4,17,0.00
2013-5-2,53,49,47,52,49,46,98,98,98,30.45,30.35,19,2,19,0.00
2013-5-3,55,49,45,51,45,40,98,86,61,30.40,30.23,19,7,19,0.00
2013-5-4,48,42,38,44,39,33,98,89,70,30.29,30.14,22,8,22,0.00
2013-5-5,48,43,39,47,43,39,98,98,98,30.21,29.98,23,-564,23,0.00
2013-5-6,58,49,43,57,46,36,98,91,49,30.08,29.89,24,-748,24,0.00
2013-5-7,57,48,43,49,43,39,98,86,53,30.09,29.95,6,-881,6,0.00
2013-5-8,62,52,46,49,46,41,98,81,49,30.17,29.99,10,-988,10,0.00
2013-5-9,78,59,47,50,43,32,98,61,22,30.27,30.03,9,-661,9,0.13
2013-5-10,74,62,54,54,46,38,89,59,35,30.26,30.00,23,-408,23,0.13
2013-5-11,68,59,53,54,49,43,88,69,46,30.10,29.89,13,-611,13,0.12
2013-5-12,63,51,42,44,30,19,82,48,24,30.21,29.94,17,-789,17,0.00
2013-5-13,63,47,36,23,19,13,52,35,16,30.35,30.09,10,-776,10,0.00
2013-5-14,71,54,37,36,27,17,51,37,20,30.40,30.08,18,-438,18,0.00
2013-5-15,88,69,53,46,40,31,61,37,16,30.19,29.94,20,-427,20,0.00
2013-5-16,78,65,58,44,39,32,46,38,23,30.19,30.01,16,-636,16,0.00
2013-5-17,80,65,56,57,48,37,90,56,33,30.25,30.07,15,-407,15,0.37
2013-5-18,59,58,57,58,56,52,98,94,81,30.27,30.16,17,-206,17,0.50
2013-5-19,63,60,57,62,59,57,98,98,98,30.23,30.12,11,-469,11,0.17
2013-5-20,79,64,57,63,59,51,98,87,40,30.26,30.04,9,-731,9,0.12
2013-5-21,83,67,58,66,58,49,98,75,36,30.19,29.94,12,-461,12,0.46
2013-5-22,74,62,56,65,56,49,98,83,53,30.19,29.95,15,-455,15,1.41
2013-5-23,82,63,56,63,51,38,98,72,25,30.10,29.81,13,-276,13,0.04
2013-5-24,61,52,44,49,36,24,93,59,27,30.38,29.97,13,-279,13,0.00
2013-5-25,75,55,42,32,26,18,57,36,13,30.43,30.17,13,-438,13,0.00
2013-5-26,78,58,46,37,32,25,60,40,20,30.41,30.14,9,-193,9,0.00
2013-5-27,78,62,51,50,44,36,68,53,31,30.40,30.15,17,-356,17,0.00
2013-5-28,78,65,56,59,52,48,84,64,45,30.32,30.19,19,-94,19,0.00
2013-5-29,83,67,56,59,53,44,91,63,31,30.34,30.16,17,-32,17,0.00
2013-5-30,82,67,57,60,53,47,91,64,33,30.40,30.18,16,-318,16,0.00
2013-5-31,80,67,58,59,53,45,84,62,33,30.34,30.13,17,-108,17,0.00
2013-6-1,80,67,59,63,55,48,98,70,34,30.26,30.03,22,-10,22,0.00
2013-6-2,67,62,60,64,60,55,98,91,72,30.15,30.03,19,-16,19,0.25
2013-6-3,82,66,59,61,54,44,98,70,29,30.14,29.85,12,-64,12,0.00
2013-6-4,60,59,57,57,54,52,91,85,76,30.19,30.08,0,-983,0,0.04
2013-6-21,84,72,60,54,51,48,80,50,31,30.41,30.20,11,-39,11,0.04
2013-6-22,86,68,55,54,51,46,85,59,27,30.41,30.12,12,-10,12,0.00
2013-6-23,86,69,60,62,56,50,90,67,33,30.35,30.14,12,-93,12,0.00
2013-6-24,82,67,60,67,60,55,93,80,47,30.35,30.12,10,-233,10,0.42
2013-6-25,83,68,61,70,61,56,98,82,48,30.30,30.11,10,-436,10,0.04
2013-6-26,88,70,61,65,60,51,98,75,31,30.19,29.94,9,-221,9,0.00
2013-6-27,81,69,62,64,58,49,89,68,49,30.08,29.80,12,-305,12,0.08
2013-6-28,84,69,63,67,57,49,83,68,32,29.93,29.71,11,-463,11,0.08
2013-6-29,82,68,61,60,51,39,88,59,32,29.86,29.65,8,-113,8,0.00
2013-6-30,82,66,58,60,55,48,95,68,39,30.01,29.76,15,-380,15,0.67
2013-7-1,69,63,60,69,62,58,98,96,83,30.10,29.94,19,-305,19,2.36
2013-7-2,66,62,60,65,62,60,98,98,96,30.28,30.07,18,-196,18,2.36
2013-7-3,70,63,58,69,63,57,98,98,98,30.36,30.22,26,-64,26,2.36
2013-7-4,65,62,59,64,62,58,98,98,98,30.39,30.30,13,-52,13,2.36
2013-8-3,83,73,66,58,52,45,73,50,31,30.15,30.01,7,-149,7,0.04
2013-8-4,81,68,62,61,52,38,91,59,22,30.23,29.99,9,-150,9,0.04
2013-8-5,77,66,59,61,52,46,90,63,39,30.22,30.04,15,-10,15,0.46
2013-8-6,72,65,62,65,62,58,98,88,67,30.18,30.08,13,-6,13,0.00
2013-8-7,66,65,63,66,64,62,98,98,98,30.20,30.12,16,-105,16,0.21
2013-8-8,70,67,64,70,66,63,98,97,93,30.19,30.13,13,-306,17,0.04
2013-8-9,82,69,64,67,62,56,97,80,47,30.23,30.07,13,-363,13,0.20
2013-8-10,87,69,62,64,59,50,91,74,31,30.29,30.08,10,-212,10,0.75
2013-8-11,86,69,62,65,58,49,97,72,30,30.28,30.08,8,-149,8,0.75
2013-8-12,86,70,64,61,56,48,87,64,31,30.23,30.02,9,-103,9,0.54
2013-8-13,79,67,62,62,57,49,87,72,46,30.14,29.91,8,-330,10,0.00
2013-8-14,75,62,56,55,46,39,81,59,32,30.25,30.02,10,-347,10,0.00
2013-8-15,66,56,52,47,43,39,71,61,40,30.32,30.18,10,-351,10,0.00
2013-8-16,74,59,51,49,44,39,77,59,31,30.34,30.11,14,-143,14,0.00
2013-8-17,62,57,52,54,48,41,87,72,51,30.34,30.25,11,-14,11,0.25
2013-8-18,67,61,58,62,57,54,92,86,73,30.34,30.24,11,3,11,1.82
2013-8-19,66,62,60,64,61,59,98,95,90,30.33,30.20,10,-121,10,0.38
2013-8-20,74,65,59,68,59,52,98,82,49,30.32,30.20,11,-441,11,1.82
2013-8-21,72,65,61,62,59,55,91,81,58,30.38,30.25,11,-277,11,0.04
2013-8-22,84,68,61,63,55,45,96,66,31,30.33,30.09,7,-16,7,0.04
2013-8-23,76,67,62,57,53,49,79,63,42,30.22,30.08,6,-123,6,0.04
2013-8-24,78,64,57,57,45,33,83,55,21,30.50,30.22,14,-202,14,0.04
2013-8-25,77,62,55,48,41,35,72,48,24,30.55,30.32,13,-72,13,0.04
2013-8-26,84,64,53,54,46,38,83,55,21,30.50,30.17,6,-409,6,0.04
2013-8-27,78,67,61,56,51,45,73,57,34,30.29,30.10,7,-245,7,0.04
2013-8-28,86,70,64,58,53,46,79,56,28,30.17,29.99,14,-378,14,0.04
2013-8-29,89,72,67,57,51,43,69,49,21,30.15,29.93,12,-426,12,0.04
2013-8-30,74,66,63,68,60,52,92,79,49,30.22,30.04,13,-330,13,0.04
2013-8-31,78,68,64,66,58,50,93,72,40,30.10,29.95,11,-401,11,0.04
2013-9-1,76,67,63,62,55,47,82,66,39,30.04,29.90,11,-345,11,0.04
2013-9-2,84,69,63,60,53,46,87,59,30,30.04,29.88,9,-275,9,0.04
2013-9-3,81,68,60,58,47,31,80,50,24,30.18,29.90,10,-439,10,0.04
2013-9-4,81,64,57,49,47,43,70,54,29,30.30,30.09,10,-383,10,0.04
2013-9-5,84,65,56,50,42,34,70,47,20,30.30,30.10,6,-498,6,0.04
2013-9-6,77,64,58,52,46,41,73,54,31,30.34,30.15,13,-197,13,0.04
2013-9-7,79,64,57,51,48,42,77,60,32,30.29,30.07,10,-201,10,0.04
2013-9-8,80,67,60,56,50,41,74,56,28,30.18,29.99,6,-405,6,0.04
2013-9-9,79,67,61,54,50,45,72,57,32,30.31,30.15,13,-202,13,0.04
2013-9-10,82,69,61,54,49,44,74,52,30,30.36,30.21,13,-243,13,0.04
2013-9-11,84,68,62,57,51,44,78,56,29,30.37,30.16,10,-401,10,0.04
2013-9-12,82,68,60,62,55,44,90,66,33,30.25,29.93,9,-564,9,0.04
2013-9-13,72,61,51,54,40,30,78,48,23,30.11,29.88,11,-414,11,0.04
2013-9-14,71,54,45,40,34,29,61,46,24,30.31,30.06,13,-166,13,0.04
2013-9-15,71,58,52,48,43,38,70,57,33,30.35,30.23,15,-19,15,0.04
2013-9-16,76,61,55,47,43,34,70,52,24,30.33,30.12,7,-362,7,0.04
2013-9-17,59,56,52,46,39,32,70,54,37,30.45,30.33,13,-255,13,0.04
2013-9-18,60,54,49,50,44,37,84,70,50,30.44,30.29,10,-153,10,0.04
2013-9-19,70,61,56,55,50,45,85,70,44,30.34,30.17,8,-398,8,0.04
2013-9-20,76,65,58,57,51,44,86,63,35,30.24,30.01,11,-211,11,0.04
2013-9-21,63,60,54,61,58,54,98,95,82,30.06,29.83,28,-221,28,0.04
2013-9-22,70,55,49,54,42,32,97,63,26,30.11,29.86,8,-443,8,0.04
2013-9-23,69,55,49,46,40,35,74,59,32,30.22,30.04,11,-302,11,0.04
2013-9-24,72,58,50,47,43,38,75,57,32,30.23,29.99,11,-238,11,0.04
2013-9-25,57,55,53,53,50,47,88,83,72,30.10,30.00,10,-123,10,0.04
2013-9-26,68,56,51,51,42,30,84,61,29,30.23,30.01,9,-286,9,0.04
2013-9-27,73,57,48,42,38,33,68,51,25,30.35,30.11,11,3,11,0.04
2013-9-28,67,55,49,43,39,34,71,55,33,30.39,30.22,12,5,12,0.04
2013-9-29,68,55,47,46,38,33,71,54,32,30.35,30.08,11,4,11,0.04
2013-9-30,67,57,51,47,41,36,74,57,34,30.26,30.09,13,-5,13,0.22
2013-10-1,74,58,51,48,40,33,72,52,25,30.29,30.10,9,-2,9,0.00
2013-10-2,78,60,53,45,40,32,73,50,21,30.30,30.11,6,2,6,0.00
2013-10-3,74,62,57,44,41,37,58,46,30,30.29,30.14,12,3,12,0.00
2013-10-4,77,63,56,50,43,36,73,49,25,30.28,30.15,6,2,6,0.00
2013-10-5,80,65,57,50,43,35,67,47,21,30.30,30.10,13,4,13,0.00
2013-10-6,73,64,60,49,43,38,61,48,32,30.19,29.99,20,9,20,0.00
2013-10-7,62,56,48,54,42,30,82,62,38,30.20,29.92,13,4,13,1.29
2013-10-8,67,49,41,32,28,24,66,46,23,30.41,30.16,13,-7,13,0.00
2013-10-9,72,51,42,30,24,18,53,37,14,30.41,30.12,10,-1,10,0.00
2013-10-15,52,52,52,35,34,34,51,50,50,30.20,30.20,6,-497,6,0.00
2013-10-16,66,55,48,44,37,32,66,51,34,30.20,29.99,11,-58,11,0.00
2013-10-17,60,56,52,53,46,38,79,67,54,30.09,29.91,12,-395,12,0.00
2013-10-18,61,51,42,43,34,29,73,54,31,30.16,30.00,11,-427,11,0.00
2013-10-19,58,52,46,47,37,21,80,61,27,30.08,29.89,13,-290,13,0.00
2013-10-20,61,45,35,24,19,12,55,37,17,30.24,30.00,13,-460,13,0.00
2013-10-21,44,44,43,26,24,21,48,45,41,30.21,30.20,9,-49,9,0.00